Regional Weather Roundup
Issued by NWS Raleigh/Durham, NC

Home | Current Version | Previous Version | Text Only | Print | Product List | Glossary On
Versions: 1 2 3 4 5 6 7 8 9 10 11 12 13 14 15 16 17 18 19 20 21 22 23 24 25 26 27 28
000
ASUS42 KRAH 221410
RWRRAH
NORTH CAROLINA WEATHER ROUNDUP
NATIONAL WEATHER SERVICE RALEIGH NC
1000 AM EDT TUE MAY 22 2018

NOTE: "FAIR" INDICATES FEW OR NO CLOUDS BELOW 12,000 FEET WITH NO
SIGNIFICANT WEATHER AND/OR OBSTRUCTIONS TO VISIBILITY.

NCZ001-053-055-056-065-067-221500-
WESTERN NORTH CAROLINA

CITY           SKY/WX    TMP DP  RH WIND       PRES   REMARKS
ASHEVILLE      FAIR      73  64  73 S8        30.20S
JEFFERSON      CLOUDY    65  62  92 CALM      30.24R
MORGANTON      CLOUDY    63  63 100 SW5       30.21S
HICKORY        PTSUNNY   69  68  96 NW3       30.16S
RUTHERFORDTON  CLOUDY    70  70 100 CALM      30.17F
MOUNT AIRY     NOT AVBL
BOONE          CLOUDY    69  58  68 CALM      30.24R
$$

NCZ021-022-025-041-071-084-088-221500-
CENTRAL NORTH CAROLINA

CITY           SKY/WX    TMP DP  RH WIND       PRES   REMARKS
CHARLOTTE      PTSUNNY   76  71  85 SW6       30.17S
GREENSBORO     PTSUNNY   75  69  81 SW10      30.15S
WINSTON-SALEM  FAIR      74  68  81 SW7       30.16F
RALEIGH-DURHAM CLOUDY    74  72  93 SW8       30.15S
FORT BRAGG     FAIR      76  69  78 S7        30.15S
FAYETTEVILLE   CLOUDY    78  68  71 SW10      30.16S
BURLINGTON     FAIR      77  68  73 SW12      30.14S
LAURINBURG     PTSUNNY   77  69  76 SW6       30.16F
$$

NCZ011-015-027-028-043-044-047-080-103-221500-
NORTHEASTERN NORTH CAROLINA

CITY           SKY/WX    TMP DP  RH WIND       PRES   REMARKS
ROCKY MT-WILSO CLOUDY    75  71  87 W7        30.14F
GREENVILLE     PTSUNNY   77  72  83 W7        30.16S
WASHINGTON     CLOUDY    76  71  84 SW7       30.16R
ELIZABETH CITY CLOUDY    75  72  90 CALM      30.14S
MANTEO         CLOUDY    75  71  85 SW9       30.15S
CAPE HATTERAS  PTSUNNY   75  72  90 SW9       30.16S
$$

NCZ078-087-090-091-093-098-101-221500-
SOUTHEASTERN NORTH CAROLINA

CITY           SKY/WX    TMP DP  RH WIND       PRES   REMARKS
LUMBERTON      FAIR      79  68  69 W9        30.16S
GOLDSBORO      PTSUNNY   79  70  73 SW13      30.14S
KINSTON        LGT RAIN  73  72  94 SW8       30.15S
KENANSVILLE    CLOUDY    75  72  88 SW5       30.17S
NEW BERN       FAIR      77  71  82 W8        30.17S
CHERRY POINT   CLOUDY    80  72  76 W10       30.17R
BEAUFORT       CLOUDY    77  72  84 SW10      30.17S
JACKSONVILLE   PTSUNNY   78  72  81 W9        30.16S
WILMINGTON     FAIR      78  69  73 SW6       30.17S
$$





USA.gov is the U.S. government's official web portal to all federal, state and local government web resources and services.